| time (UTC) | temp F | wind direction | speed MPH | gust MPH | rain 1hr in | rain 24hr in | rain mn in | humidity % | barometer mb |
| 20260510171528 | 58 | 28 | 2.0 | 4.0 | 0.00 | 0.27 | 0.00 | 65 | 1014.2 |
| 20260510170027 | 58 | 311 | 0.0 | 3.0 | 0.00 | 0.27 | 0.00 | 65 | 1014.3 |
| 20260510164527 | 57 | 119 | 0.0 | 5.0 | 0.00 | 0.27 | 0.00 | 69 | 1014.4 |
| 20260510161515 | 55 | 35 | 0.0 | 3.0 | 0.00 | 0.28 | 0.00 | 75 | 1014.4 |
| 20260510160014 | 55 | 65 | 2.0 | 5.0 | 0.00 | 0.28 | 0.00 | 78 | 1014.3 |
| 20260510154512 | 54 | 18 | 0.0 | 6.0 | 0.00 | 0.28 | 0.00 | 82 | 1014.2 |
| 20260510151515 | 52 | 17 | 1.0 | 6.0 | 0.00 | 0.30 | 0.00 | 89 | 1014.0 |
| 20260510150013 | 52 | 29 | 4.0 | 8.0 | 0.00 | 0.30 | 0.00 | 86 | 1013.8 |
| 20260510144515 | 54 | 250 | 0.0 | 3.0 | 0.00 | 0.30 | 0.00 | 85 | 1013.4 |
| 20260510141512 | 57 | 248 | 2.0 | 6.0 | 0.00 | 0.31 | 0.00 | 88 | 1013.0 |
| 20260510140005 | 55 | 227 | 0.0 | 6.0 | 0.00 | 0.31 | 0.00 | 91 | 1013.2 |
| 20260510134502 | 54 | 234 | 1.0 | 5.0 | 0.00 | 0.31 | 0.00 | 93 | 1013.1 |
| 20260510131502 | 53 | 252 | 0.0 | 4.0 | 0.00 | 0.35 | 0.00 | 94 | 1013.0 |
| 20260510124605 | 51 | 244 | 0.0 | 2.0 | 0.00 | 0.35 | 0.00 | 96 | 1012.7 |
| 20260510121546 | 50 | 244 | 0.0 | 3.0 | 0.00 | 0.37 | 0.00 | 96 | 1012.8 |
| 20260510120045 | 50 | 244 | 0.0 | 2.0 | 0.00 | 0.37 | 0.00 | 96 | 1012.7 |
| 20260510114550 | 49 | 244 | 0.0 | 3.0 | 0.00 | 0.37 | 0.00 | 96 | 1012.5 |
| 20260510111539 | 48 | 244 | 0.0 | 3.0 | 0.00 | 0.41 | 0.00 | 96 | 1012.1 |
| 20260510110034 | 48 | 244 | 0.0 | 3.0 | 0.00 | 0.41 | 0.00 | 97 | 1011.9 |
| 20260510104530 | 47 | 243 | 0.0 | 0.0 | 0.00 | 0.41 | 0.00 | 96 | 1011.5 |
| 20260510101532 | 47 | 243 | 0.0 | 0.0 | 0.00 | 0.46 | 0.00 | 96 | 1011.0 |
| 20260510100030 | 47 | 243 | 0.0 | 4.0 | 0.00 | 0.46 | 0.00 | 96 | 1010.7 |
| 20260510094541 | 46 | 243 | 2.0 | 3.0 | 0.00 | 0.46 | 0.00 | 96 | 1010.6 |
| 20260510091533 | 46 | 236 | 0.0 | 5.0 | 0.00 | 0.47 | 0.00 | 96 | 1010.2 |
| 20260510090027 | 46 | 229 | 1.0 | 5.0 | 0.00 | 0.47 | 0.00 | 96 | 1010.2 |
| 20260510084525 | 46 | 223 | 0.0 | 2.0 | 0.00 | 0.47 | 0.00 | 96 | 1010.2 |
| 20260510081526 | 47 | 223 | 0.0 | 3.0 | 0.00 | 0.48 | 0.00 | 96 | 1010.1 |
| 20260510080027 | 47 | 223 | 0.0 | 0.0 | 0.00 | 0.48 | 0.00 | 96 | 1009.7 |
| 20260510074525 | 47 | 223 | 0.0 | 3.0 | 0.00 | 0.48 | 0.00 | 96 | 1009.8 |
| 20260510071527 | 47 | 226 | 0.0 | 5.0 | 0.00 | 0.50 | 0.00 | 96 | 1009.9 |
| 20260510070017 | 47 | 226 | 0.0 | 3.0 | 0.00 | 0.50 | 0.00 | 95 | 1009.7 |
| 20260510064514 | 47 | 226 | 1.0 | 5.0 | 0.00 | 0.50 | 0.00 | 96 | 1010.0 |
| 20260510061513 | 47 | 223 | 0.0 | 7.0 | 0.00 | 0.53 | 0.50 | 95 | 1009.9 |
| 20260510060023 | 47 | 211 | 0.0 | 6.0 | 0.00 | 0.53 | 0.50 | 95 | 1010.0 |
| 20260510054513 | 47 | 256 | 0.0 | 1.0 | 0.00 | 0.53 | 0.50 | 95 | 1010.0 |
| 20260510051513 | 47 | 256 | 0.0 | 3.0 | 0.02 | 0.56 | 0.50 | 95 | 1010.0 |
| 20260510050010 | 47 | 256 | 0.0 | 4.0 | 0.03 | 0.56 | 0.50 | 95 | 1010.1 |
| 20260510044510 | 47 | 227 | 0.0 | 4.0 | 0.03 | 0.56 | 0.50 | 95 | 1009.8 |
| 20260510041505 | 47 | 227 | 0.0 | 5.0 | 0.04 | 0.62 | 0.49 | 95 | 1010.9 |
| 20260510040006 | 47 | 242 | 0.0 | 4.0 | 0.05 | 0.61 | 0.48 | 94 | 1010.9 |
| 20260510034512 | 48 | 243 | 1.0 | 5.0 | 0.04 | 0.60 | 0.47 | 94 | 1011.0 |
| 20260510031511 | 48 | 5 | 2.0 | 8.0 | 0.03 | 0.64 | 0.46 | 92 | 1010.9 |
| 20260510030017 | 50 | 42 | 3.0 | 19.0 | 0.00 | 0.61 | 0.43 | 91 | 1010.9 |
| 20260510024509 | 51 | 242 | 0.0 | 2.0 | 0.00 | 0.61 | 0.43 | 93 | 1009.7 |
| 20260510021512 | 51 | 240 | 0.0 | 7.0 | 0.00 | 0.63 | 0.43 | 93 | 1009.4 |
| 20260510020011 | 51 | 251 | 3.0 | 7.0 | 0.00 | 0.63 | 0.43 | 94 | 1009.1 |
| 20260510014511 | 51 | 211 | 2.0 | 7.0 | 0.00 | 0.63 | 0.43 | 93 | 1008.7 |
| 20260510011516 | 51 | 212 | 2.0 | 8.0 | 0.00 | 0.68 | 0.43 | 93 | 1008.4 |
| 20260510010014 | 52 | 184 | 1.0 | 5.0 | 0.00 | 0.68 | 0.43 | 92 | 1008.4 |
| 20260510004514 | 53 | 214 | 1.0 | 6.0 | 0.00 | 0.68 | 0.43 | 91 | 1008.3 |
| 20260510001508 | 53 | 230 | 2.0 | 10.0 | 0.00 | 0.68 | 0.43 | 91 | 1008.0 |
| 20260510000007 | 53 | 222 | 4.0 | 9.0 | 0.00 | 0.68 | 0.43 | 91 | 1007.8 |
| 20260509234509 | 53 | 217 | 2.0 | 9.0 | 0.00 | 0.68 | 0.43 | 91 | 1007.8 |
| 20260509231512 | 54 | 225 | 2.0 | 12.0 | 0.00 | 0.68 | 0.43 | 91 | 1007.6 |
| 20260509230006 | 55 | 242 | 1.0 | 6.0 | 0.00 | 0.68 | 0.43 | 90 | 1007.3 |
| 20260509224504 | 55 | 230 | 0.0 | 6.0 | 0.00 | 0.68 | 0.43 | 92 | 1007.5 |
| 20260509221556 | 54 | 191 | 0.0 | 5.0 | 0.00 | 0.68 | 0.43 | 94 | 1007.5 |
| 20260509220106 | 54 | 273 | 1.0 | 9.0 | 0.00 | 0.68 | 0.43 | 96 | 1007.6 |
| 20260509214558 | 53 | 280 | 0.0 | 5.0 | 0.00 | 0.68 | 0.43 | 97 | 1007.6 |
| 20260509213153 | 52 | 229 | 2.0 | 6.0 | 0.00 | 0.68 | 0.43 | 97 | 1007.9 |
| 20260509211506 | 53 | 269 | 1.0 | 4.0 | 0.00 | 0.68 | 0.43 | 97 | 1007.8 |
| 20260509210107 | 52 | 229 | 3.0 | 7.0 | 0.00 | 0.68 | 0.43 | 97 | 1007.9 |
| 20260509204559 | 51 | 273 | 0.0 | 5.0 | 0.00 | 0.68 | 0.43 | 97 | 1007.8 |
| 20260509203157 | 50 | 288 | 0.0 | 4.0 | 0.00 | 0.68 | 0.43 | 97 | 1008.3 |
| 20260509201543 | 51 | 209 | 0.0 | 5.0 | 0.00 | 0.68 | 0.43 | 97 | 1008.3 |
| 20260509200043 | 50 | 241 | 0.0 | 4.0 | 0.01 | 0.68 | 0.43 | 97 | 1008.4 |
| 20260509194539 | 50 | 166 | 2.0 | 7.0 | 0.01 | 0.68 | 0.43 | 97 | 1008.6 |
| 20260509193139 | 50 | 268 | 1.0 | 8.0 | 0.02 | 0.69 | 0.43 | 97 | 1008.6 |
| 20260509191545 | 50 | 238 | 3.0 | 7.0 | 0.04 | 0.69 | 0.43 | 97 | 1008.6 |
| 20260509190044 | 49 | 256 | 2.0 | 7.0 | 0.07 | 0.68 | 0.42 | 96 | 1008.6 |
| 20260509184551 | 49 | 242 | 0.0 | 6.0 | 0.11 | 0.68 | 0.42 | 97 | 1008.7 |
| 20260509183141 | 49 | 230 | 4.0 | 9.0 | 0.11 | 0.67 | 0.41 | 97 | 1008.6 |
| 20260509181552 | 49 | 243 | 3.0 | 8.0 | 0.13 | 0.66 | 0.40 | 96 | 1008.7 |
| 20260509180046 | 49 | 234 | 1.0 | 7.0 | 0.10 | 0.62 | 0.36 | 96 | 1008.9 |
| 20260509174541 | 48 | 230 | 3.0 | 6.0 | 0.07 | 0.56 | 0.31 | 97 | 1008.7 |